Location: Branche des Alpilles
(43.6087°N, 4.6976°E)
Time: 16:35:35
(UTC+00:00)

Cosmos 1939 Rocket - Pass Details

Date: 30 November 2020
Orbit: 532 x 584 km, 97.4° (Epoch: 23 January)

Event Time Altitude Azimuth Distance (km) Brightness Sun altitude
Rises 17:31:32 0° 159° (SSE) 2,669 6.3 -15.1°
Reaches altitude 10° 17:33:38 10° 156° (SSE) 1,787 5.3 -15.4°
Maximum altitude 17:37:26 63° 75° (ENE) 607 2.7 -16.1°
Drops below altitude 10° 17:41:20 10° 354° (N) 1,824 5.4 -16.8°
Sets 17:43:30 0° 351° (N) 2,731 6.3 -17.2°
